Location: Newark
(48.1500°N, 13.1167°E)
Time: 23:47:30
(UTC+00:00)

ISS - Pass Details

Date: 26 September 2021
Orbit: 417 x 423 km, 51.6° (Epoch: 18 October)

Event Time Altitude Azimuth Distance (km) Brightness Sun altitude
Rises 18:57:51 0° 288° (WNW) 2,366 1.7 -20.6°
Reaches altitude 10° 18:59:59 10° 293° (WNW) 1,502 0.2 -20.9°
Enters shadow 19:03:04 51° 354° (N) 535 -3.2 -21.4°
